• In Czech Republic
  • List of Countries
  • For 7 days
  • Water Temperature
  • Satellite Maps
  • Weather Map
  • Weather Widgets
  • user-avatar
    Login

    Hourly Weather Vanadzor

    Today, 22 August, Tuesday

    Time Temperature Precipitation Wind Pressure Humidity
    00:00 +17°C° 0 mm 2 mps 635 mmHg 73%
    01:00 +16°C° 0 mm 2 mps 635 mmHg 74%
    02:00 +16°C° 0 mm 2 mps 635 mmHg 76%
    03:00 +16°C° 0 mm 2 mps 635 mmHg 73%
    04:00 +16°C° 0 mm 1 mps 635 mmHg 73%
    05:00 +16°C° 0 mm 1 mps 635 mmHg 72%
    06:00 +16°C° 0 mm 1 mps 635 mmHg 72%
    07:00 +20°C° 0 mm 1 mps 636 mmHg 62%
    08:00 +23°C° 0 mm 1 mps 637 mmHg 52%
    09:00 +25°C° 0 mm 2 mps 637 mmHg 42%
    10:00 +27°C° 0 mm 2 mps 637 mmHg 39%
    11:00 +28°C° 0 mm 2 mps 638 mmHg 35%
    12:00 +29°C° 0 mm 2 mps 638 mmHg 32%
    13:00 +30°C° 0 mm 3 mps 637 mmHg 32%
    14:00 +30°C° 0 mm 3 mps 637 mmHg 32%
    15:00 +30°C° 0 mm 3 mps 637 mmHg 31%
    16:00 +29°C° 0 mm 3 mps 636 mmHg 37%
    17:00 +27°C° 0 mm 3 mps 636 mmHg 42%
    18:00 +26°C° 0 mm 2 mps 635 mmHg 47%
    19:00 +24°C° 0 mm 2 mps 635 mmHg 52%
    20:00 +21°C° 0 mm 2 mps 635 mmHg 57%
    21:00 +19°C° 0 mm 2 mps 635 mmHg 63%
    22:00 +18°C° 0 mm 2 mps 635 mmHg 63%
    23:00 +17°C° 0 mm 2 mps 635 mmHg 63%

    Tomorrow, 23 August, Wednesday

    Time Temperature Precipitation Wind Pressure Humidity
    00:00 +17°C° 0 mm 2 mps 635 mmHg 63%
    01:00 +16°C° 0 mm 2 mps 635 mmHg 65%
    02:00 +16°C° 0 mm 2 mps 635 mmHg 66%
    03:00 +15°C° 0 mm 2 mps 634 mmHg 67%
    04:00 +15°C° 0 mm 2 mps 635 mmHg 68%
    05:00 +15°C° 0 mm 2 mps 635 mmHg 68%
    06:00 +15°C° 0 mm 2 mps 635 mmHg 69%
    07:00 +18°C° 0 mm 2 mps 636 mmHg 62%
    08:00 +20°C° 0 mm 2 mps 636 mmHg 54%
    09:00 +24°C° 0 mm 2 mps 637 mmHg 47%
    10:00 +25°C° 0 mm 2 mps 637 mmHg 43%
    11:00 +27°C° 0 mm 3 mps 638 mmHg 39%
    12:00 +28°C° 0 mm 3 mps 638 mmHg 35%
    13:00 +29°C° 0 mm 3 mps 638 mmHg 35%
    14:00 +29°C° 0 mm 3 mps 638 mmHg 34%
    15:00 +29°C° 0 mm 3 mps 638 mmHg 33%
    16:00 +28°C° 0 mm 3 mps 638 mmHg 38%
    17:00 +26°C° 0 mm 3 mps 637 mmHg 43%
    18:00 +24°C° 0 mm 3 mps 637 mmHg 47%
    19:00 +22°C° 0 mm 3 mps 637 mmHg 49%
    20:00 +20°C° 0 mm 3 mps 637 mmHg 51%
    21:00 +18°C° 0 mm 3 mps 637 mmHg 52%
    22:00 +17°C° 0 mm 3 mps 637 mmHg 53%
    23:00 +17°C° 0 mm 2 mps 637 mmHg 54%

    Day after tomorrow, 24 August, Thursday

    Time Temperature Precipitation Wind Pressure Humidity
    00:00 +16°C° 0 mm 2 mps 637 mmHg 54%
    01:00 +16°C° 0 mm 2 mps 637 mmHg 57%
    02:00 +15°C° 0 mm 2 mps 637 mmHg 60%
    03:00 +15°C° 0 mm 2 mps 637 mmHg 63%
    04:00 +15°C° 0 mm 2 mps 637 mmHg 64%
    05:00 +15°C° 0 mm 2 mps 637 mmHg 66%
    06:00 +15°C° 0 mm 2 mps 637 mmHg 68%
    07:00 +17°C° 0 mm 2 mps 638 mmHg 62%
    08:00 +20°C° 0 mm 2 mps 638 mmHg 55%
    09:00 +23°C° 0 mm 2 mps 639 mmHg 49%
    10:00 +25°C° 0 mm 2 mps 639 mmHg 45%
    11:00 +26°C° 0 mm 3 mps 640 mmHg 41%
    12:00 +27°C° 0 mm 3 mps 640 mmHg 37%
    13:00 +28°C° 0 mm 3 mps 640 mmHg 37%
    14:00 +28°C° 0 mm 4 mps 639 mmHg 36%
    15:00 +28°C° 0 mm 4 mps 639 mmHg 35%
    16:00 +27°C° 0 mm 3 mps 639 mmHg 39%
    17:00 +25°C° 0 mm 3 mps 638 mmHg 42%
    18:00 +24°C° 0 mm 3 mps 638 mmHg 46%
    19:00 +21°C° 0 mm 3 mps 638 mmHg 47%
    20:00 +19°C° 0 mm 2 mps 638 mmHg 48%
    21:00 +17°C° 0 mm 2 mps 638 mmHg 49%
    22:00 +17°C° 0 mm 2 mps 638 mmHg 49%
    23:00 +16°C° 0 mm 2 mps 638 mmHg 49%

    25 August, Friday

    Time Temperature Precipitation Wind Pressure Humidity
    00:00 +16°C° 0 mm 2 mps 638 mmHg 49%
    01:00 +15°C° 0 mm 2 mps 638 mmHg 52%
    02:00 +15°C° 0 mm 2 mps 638 mmHg 54%
    03:00 +14°C° 0 mm 2 mps 638 mmHg 56%
    04:00 +14°C° 0 mm 2 mps 638 mmHg 57%
    05:00 +14°C° 0 mm 2 mps 638 mmHg 59%
    06:00 +14°C° 0 mm 2 mps 638 mmHg 60%
    07:00 +17°C° 0 mm 2 mps 639 mmHg 54%
    08:00 +19°C° 0 mm 2 mps 639 mmHg 47%
    09:00 +23°C° 0 mm 2 mps 640 mmHg 40%
    10:00 +24°C° 0 mm 2 mps 640 mmHg 37%
    11:00 +26°C° 0 mm 3 mps 640 mmHg 34%
    12:00 +27°C° 0 mm 3 mps 640 mmHg 31%
    13:00 +27°C° 0 mm 3 mps 640 mmHg 30%
    14:00 +28°C° 0 mm 3 mps 639 mmHg 30%
    15:00 +28°C° 0 mm 3 mps 639 mmHg 29%
    16:00 +26°C° 0 mm 3 mps 639 mmHg 32%
    17:00 +25°C° 0 mm 3 mps 638 mmHg 35%
    18:00 +22°C° 0 mm 3 mps 638 mmHg 39%
    19:00 +20°C° 0 mm 3 mps 638 mmHg 38%
    20:00 +19°C° 0 mm 3 mps 638 mmHg 38%
    21:00 +17°C° 0 mm 3 mps 638 mmHg 38%
    22:00 +16°C° 0 mm 3 mps 638 mmHg 37%
    23:00 +16°C° 0 mm 2 mps 638 mmHg 37%

    26 August, Saturday

    Time Temperature Precipitation Wind Pressure Humidity
    00:00 +15°C° 0 mm 2 mps 638 mmHg 36%
    01:00 +14°C° 0 mm 2 mps 637 mmHg 37%
    02:00 +14°C° 0 mm 2 mps 637 mmHg 39%
    03:00 +13°C° 0 mm 2 mps 637 mmHg 40%
    04:00 +13°C° 0 mm 2 mps 637 mmHg 42%
    05:00 +13°C° 0 mm 2 mps 637 mmHg 44%
    06:00 +13°C° 0 mm 2 mps 637 mmHg 45%
    07:00 +16°C° 0 mm 2 mps 638 mmHg 42%
    08:00 +18°C° 0 mm 2 mps 638 mmHg 38%
    09:00 +21°C° 0 mm 2 mps 639 mmHg 34%
    10:00 +23°C° 0 mm 2 mps 639 mmHg 32%
    11:00 +24°C° 0 mm 2 mps 639 mmHg 31%
    12:00 +26°C° 0 mm 3 mps 639 mmHg 29%
    13:00 +26°C° 0 mm 3 mps 639 mmHg 29%
    14:00 +27°C° 0 mm 3 mps 639 mmHg 28%
    15:00 +27°C° 0 mm 3 mps 638 mmHg 28%
    16:00 +26°C° 0 mm 3 mps 638 mmHg 32%
    17:00 +24°C° 0 mm 3 mps 638 mmHg 35%
    18:00 +23°C° 0 mm 2 mps 637 mmHg 39%
    19:00 +20°C° 0 mm 2 mps 637 mmHg 40%
    20:00 +18°C° 0 mm 2 mps 637 mmHg 41%
    21:00 +16°C° 0 mm 2 mps 637 mmHg 42%
    22:00 +15°C° 0 mm 2 mps 637 mmHg 42%
    23:00 +15°C° 0 mm 2 mps 637 mmHg 41%

    27 August, Sunday

    Time Temperature Precipitation Wind Pressure Humidity
    00:00 +14°C° 0 mm 2 mps 637 mmHg 41%
    01:00 +14°C° 0 mm 2 mps 637 mmHg 43%
    02:00 +14°C° 0 mm 2 mps 636 mmHg 44%
    03:00 +13°C° 0 mm 2 mps 636 mmHg 46%
    04:00 +13°C° 0 mm 2 mps 636 mmHg 47%
    05:00 +13°C° 0 mm 2 mps 636 mmHg 49%
    06:00 +13°C° 0 mm 2 mps 636 mmHg 50%
    07:00 +15°C° 0 mm 2 mps 637 mmHg 44%
    08:00 +18°C° 0 mm 2 mps 637 mmHg 39%
    09:00 +21°C° 0 mm 2 mps 638 mmHg 33%
    10:00 +23°C° 0 mm 2 mps 638 mmHg 32%
    11:00 +24°C° 0 mm 2 mps 638 mmHg 30%
    12:00 +26°C° 0 mm 3 mps 638 mmHg 29%
    13:00 +26°C° 0 mm 3 mps 638 mmHg 29%
    14:00 +26°C° 0 mm 3 mps 638 mmHg 28%
    15:00 +27°C° 0 mm 3 mps 637 mmHg 28%
    16:00 +25°C° 0 mm 3 mps 637 mmHg 32%
    17:00 +24°C° 0 mm 2 mps 637 mmHg 35%
    18:00 +23°C° 0 mm 2 mps 636 mmHg 39%
    19:00 +20°C° 0 mm 2 mps 636 mmHg 41%
    20:00 +18°C° 0 mm 2 mps 636 mmHg 42%
    21:00 +16°C° 0 mm 2 mps 636 mmHg 44%
    22:00 +15°C° 0 mm 2 mps 636 mmHg 44%
    23:00 +15°C° 0 mm 2 mps 636 mmHg 44%
    Show more